When you browse on this site, cookies collect data to enhance your experience and personalize the content and advertising you see.
Visit our Privacy Policy to learn more. By continuing to use the site, you agree to this use of cookies and data.
  • In Latvia
  • List of Countries
  • For 7 days
  • Water Temperature
  • Satellite Maps
  • Weather Map
  • Weather Widgets
  • user-avatar
    Login

    Hourly Weather Leicester

    Today, 20 January, Sunday

    Time Temperature Precipitation Wind Pressure Humidity
    00:00 +2°C° 0 mm 1 mps 752 mmHg 92%
    01:00 +2°C° 0 mm 1 mps 752 mmHg 92%
    02:00 +1°C° 0 mm 1 mps 753 mmHg 91%
    03:00 +1°C° 0 mm 1 mps 753 mmHg 91%
    04:00 +1°C° 0 mm 1 mps 753 mmHg 91%
    05:00 +1°C° 0 mm 1 mps 754 mmHg 91%
    06:00 +1°C° 0 mm 1 mps 754 mmHg 91%
    07:00 +1°C° 0 mm 1 mps 755 mmHg 90%
    08:00 +1°C° 0 mm 1 mps 755 mmHg 88%
    09:00 +2°C° 0 mm 1 mps 756 mmHg 86%
    10:00 +2°C° 0 mm 0 mps 756 mmHg 82%
    11:00 +3°C° 0 mm 0 mps 757 mmHg 78%
    12:00 +4°C° 0 mm 0 mps 757 mmHg 73%
    13:00 +4°C° 0 mm 0 mps 758 mmHg 75%
    14:00 +4°C° 0 mm 0 mps 758 mmHg 77%
    15:00 +5°C° 0 mm 1 mps 758 mmHg 79%
    16:00 +4°C° 0 mm 1 mps 758 mmHg 83%
    17:00 +3°C° 0 mm 1 mps 759 mmHg 87%
    18:00 +2°C° 0 mm 1 mps 759 mmHg 91%
    19:00 +2°C° 0 mm 1 mps 760 mmHg 92%
    20:00 +2°C° 0 mm 1 mps 760 mmHg 93%
    21:00 +1°C° 0 mm 2 mps 761 mmHg 94%
    22:00 +1°C° 0 mm 2 mps 761 mmHg 94%
    23:00 +1°C° 0 mm 2 mps 761 mmHg 94%

    Tomorrow, 21 January, Monday

    Time Temperature Precipitation Wind Pressure Humidity
    00:00 +1°C° 0 mm 2 mps 761 mmHg 94%
    01:00 +2°C° 0 mm 1 mps 761 mmHg 94%
    02:00 +2°C° 0 mm 1 mps 761 mmHg 94%
    03:00 +2°C° 0 mm 1 mps 761 mmHg 94%
    04:00 +2°C° 0 mm 1 mps 761 mmHg 94%
    05:00 +2°C° 0 mm 1 mps 761 mmHg 95%
    06:00 +2°C° 0 mm 1 mps 761 mmHg 95%
    07:00 +2°C° 0 mm 1 mps 761 mmHg 95%
    08:00 +2°C° 0 mm 1 mps 761 mmHg 94%
    09:00 +3°C° 0 mm 1 mps 761 mmHg 94%
    10:00 +2°C° 0 mm 2 mps 760 mmHg 91%
    11:00 +3°C° 0 mm 2 mps 759 mmHg 89%
    12:00 +3°C° 0 mm 3 mps 759 mmHg 86%
    13:00 +4°C° 0 mm 3 mps 758 mmHg 86%
    14:00 +4°C° 0 mm 4 mps 757 mmHg 86%
    15:00 +4°C° 0 mm 4 mps 756 mmHg 86%
    16:00 +3°C° 0 mm 5 mps 755 mmHg 87%
    17:00 +2°C° 0 mm 5 mps 754 mmHg 88%
    18:00 +2°C° 0 mm 6 mps 754 mmHg 89%
    19:00 +2°C° 0.1 mm 6 mps 752 mmHg 89%
    20:00 +2°C° 0.1 mm 7 mps 751 mmHg 89%
    21:00 +2°C° 0.1 mm 7 mps 749 mmHg 89%
    22:00 +2°C° 0.7 mm 8 mps 748 mmHg 89%
    23:00 +2°C° 0.7 mm 8 mps 747 mmHg 89%

    Day after tomorrow, 22 January, Tuesday

    Time Temperature Precipitation Wind Pressure Humidity
    00:00 +2°C° 0.7 mm 9 mps 746 mmHg 89%
    01:00 +2°C° 0.8 mm 7 mps 745 mmHg 87%
    02:00 +1°C° 0.8 mm 6 mps 744 mmHg 85%
    03:00 0°C° 0.8 mm 5 mps 744 mmHg 84%
    04:00 0°C° 0 mm 5 mps 744 mmHg 84%
    05:00 -1°C° 0 mm 5 mps 743 mmHg 85%
    06:00 -1°C° 0 mm 5 mps 743 mmHg 85%
    07:00 -1°C° 0 mm 5 mps 743 mmHg 84%
    08:00 -1°C° 0 mm 4 mps 743 mmHg 83%
    09:00 -2°C° 0 mm 4 mps 743 mmHg 83%
    10:00 -1°C° 0 mm 5 mps 743 mmHg 80%
    11:00 0°C° 0 mm 5 mps 743 mmHg 77%
    12:00 +1°C° 0 mm 5 mps 743 mmHg 74%
    13:00 +1°C° 0.1 mm 5 mps 743 mmHg 74%
    14:00 +1°C° 0.1 mm 5 mps 743 mmHg 74%
    15:00 +1°C° 0.1 mm 5 mps 743 mmHg 74%
    16:00 0°C° 0 mm 4 mps 744 mmHg 77%
    17:00 -1°C° 0 mm 4 mps 744 mmHg 80%
    18:00 -2°C° 0 mm 4 mps 744 mmHg 83%
    19:00 -3°C° 0 mm 4 mps 744 mmHg 84%
    20:00 -2°C° 0 mm 3 mps 745 mmHg 85%
    21:00 -2°C° 0 mm 3 mps 745 mmHg 86%
    22:00 -2°C° 0 mm 3 mps 745 mmHg 86%
    23:00 -4°C° 0 mm 3 mps 745 mmHg 86%

    23 January, Wednesday

    Time Temperature Precipitation Wind Pressure Humidity
    00:00 -4°C° 0 mm 3 mps 745 mmHg 86%
    01:00 -4°C° 0 mm 3 mps 745 mmHg 86%
    02:00 -4°C° 0 mm 3 mps 745 mmHg 86%
    03:00 -4°C° 0 mm 3 mps 745 mmHg 86%
    04:00 -4°C° 0 mm 3 mps 746 mmHg 86%
    05:00 -4°C° 0 mm 3 mps 746 mmHg 86%
    06:00 -2°C° 0 mm 2 mps 746 mmHg 87%
    07:00 -2°C° 0 mm 2 mps 747 mmHg 86%
    08:00 -2°C° 0 mm 2 mps 747 mmHg 85%
    09:00 -2°C° 0 mm 2 mps 747 mmHg 85%
    10:00 +1°C° 0 mm 2 mps 748 mmHg 80%
    11:00 +1°C° 0 mm 3 mps 748 mmHg 75%
    12:00 +2°C° 0 mm 3 mps 748 mmHg 70%
    13:00 +3°C° 0 mm 2 mps 748 mmHg 71%
    14:00 +3°C° 0 mm 2 mps 749 mmHg 72%
    15:00 +3°C° 0 mm 2 mps 749 mmHg 74%
    16:00 +2°C° 0 mm 2 mps 749 mmHg 78%
    17:00 +1°C° 0 mm 2 mps 749 mmHg 83%
    18:00 -1°C° 0 mm 2 mps 750 mmHg 88%
    19:00 -1°C° 0 mm 2 mps 750 mmHg 88%
    20:00 -1°C° 0 mm 2 mps 750 mmHg 89%
    21:00 -1°C° 0 mm 2 mps 750 mmHg 89%
    22:00 -1°C° 0 mm 2 mps 750 mmHg 89%
    23:00 +1°C° 0 mm 2 mps 750 mmHg 88%

    24 January, Thursday

    Time Temperature Precipitation Wind Pressure Humidity
    00:00 +1°C° 0 mm 2 mps 750 mmHg 88%
    01:00 +1°C° 0.1 mm 2 mps 749 mmHg 89%
    02:00 +1°C° 0.1 mm 2 mps 749 mmHg 91%
    03:00 +1°C° 0.1 mm 2 mps 749 mmHg 92%
    04:00 +1°C° 0.1 mm 2 mps 749 mmHg 93%
    05:00 +1°C° 0.1 mm 2 mps 749 mmHg 94%
    06:00 +2°C° 0.1 mm 1 mps 748 mmHg 96%
    07:00 +2°C° 0 mm 1 mps 749 mmHg 96%
    08:00 +3°C° 0 mm 1 mps 749 mmHg 96%
    09:00 +3°C° 0 mm 1 mps 749 mmHg 96%
    10:00 +4°C° 0 mm 1 mps 750 mmHg 93%
    11:00 +4°C° 0 mm 2 mps 750 mmHg 89%
    12:00 +5°C° 0 mm 2 mps 750 mmHg 86%
    13:00 +5°C° 0 mm 2 mps 751 mmHg 87%
    14:00 +5°C° 0 mm 2 mps 751 mmHg 87%
    15:00 +5°C° 0 mm 2 mps 751 mmHg 87%
    16:00 +3°C° 0 mm 2 mps 752 mmHg 89%
    17:00 +2°C° 0 mm 2 mps 752 mmHg 91%
    18:00 +1°C° 0 mm 2 mps 753 mmHg 93%
    19:00 -1°C° 0 mm 2 mps 754 mmHg 92%
    20:00 -1°C° 0 mm 2 mps 754 mmHg 92%
    21:00 -1°C° 0 mm 2 mps 755 mmHg 91%
    22:00 +1°C° 0 mm 1 mps 756 mmHg 91%
    23:00 +1°C° 0 mm 1 mps 756 mmHg 91%

    25 January, Friday

    Time Temperature Precipitation Wind Pressure Humidity
    00:00 0°C° 0 mm 1 mps 756 mmHg 90%
    01:00 0°C° 0 mm 1 mps 757 mmHg 90%
    02:00 0°C° 0 mm 1 mps 757 mmHg 90%
    03:00 -1°C° 0 mm 0 mps 757 mmHg 90%
    04:00 -1°C° 0 mm 0 mps 758 mmHg 90%
    05:00 0°C° 0 mm 0 mps 758 mmHg 90%
    06:00 0°C° 0 mm 0 mps 758 mmHg 90%
    07:00 +1°C° 0 mm 1 mps 758 mmHg 89%
    08:00 +1°C° 0 mm 2 mps 759 mmHg 87%
    09:00 +2°C° 0 mm 2 mps 759 mmHg 86%
    10:00 +2°C° 0 mm 2 mps 759 mmHg 85%
    11:00 +2°C° 0 mm 3 mps 759 mmHg 83%
    12:00 +2°C° 0 mm 3 mps 759 mmHg 81%
    13:00 +1°C° 0 mm 4 mps 759 mmHg 80%
    14:00 +3°C° 0 mm 4 mps 759 mmHg 79%
    15:00 +3°C° 0 mm 4 mps 758 mmHg 79%
    16:00 +3°C° 0 mm 4 mps 758 mmHg 83%
    17:00 +3°C° 0 mm 4 mps 759 mmHg 88%
    18:00 +1°C° 0 mm 4 mps 759 mmHg 93%
    19:00 +1°C° 0 mm 4 mps 758 mmHg 94%
    20:00 +2°C° 0 mm 3 mps 758 mmHg 96%
    21:00 +2°C° 0 mm 3 mps 758 mmHg 97%
    22:00 +2°C° 0 mm 3 mps 758 mmHg 97%
    23:00 +2°C° 0 mm 3 mps 758 mmHg 97%
    Show more